Location: Aufkirchen
(47.9603°N, 11.3653°E)
Time: 23:58:20
(UTC+01:00)

Transit 2A Rocket - Visible Passes

Search period start: 05 December 2020 00:00
Search period end: 15 December 2020 00:00
Orbit: 589 x 914 km, 66.7° (Epoch: 05 December)

Date Brightness Start Highest point End Pass type
(mag) Time Alt. Az. Time Alt. Az. Time Alt. Az.
06 Dec 7.1 06:31:29 10° N 06:33:58 13° NNE 06:36:22 10° NE visible
07 Dec 7.3 05:49:21 10° N 05:50:45 11° NNE 05:52:08 10° NNE visible
08 Dec 6.7 06:48:24 10° NNW 06:52:08 21° NNE 06:55:40 10° E visible
09 Dec 7.0 06:06:05 10° N 06:09:04 16° NNE 06:11:56 10° ENE visible
10 Dec 7.2 05:24:08 11° N 05:25:55 12° NNE 05:27:55 10° NE visible
10 Dec 5.9 07:05:28 10° NNW 07:10:02 37° NE 07:14:13 10° ESE visible
11 Dec 7.5 04:42:47 10° NNE 04:42:47 10° NNE 04:43:20 10° NNE visible
11 Dec 6.4 06:23:03 10° NNW 06:27:08 25° NE 06:30:57 10° E visible
12 Dec 6.9 05:41:21 12° N 05:44:08 19° NNE 05:47:24 10° ENE visible
13 Dec 7.1 05:00:03 13° N 05:01:02 14° NNE 05:03:33 10° ENE visible
13 Dec 5.4 06:40:10 10° NNW 06:44:53 49° NE 06:49:13 10° SE visible
14 Dec 7.5 04:18:46 11° NNE 04:18:46 11° NNE 04:19:22 10° NE visible
14 Dec 6.1 05:58:41 15° NNW 06:02:04 32° NE 06:06:08 10° ESE visible
